Notices

What's New in latest Release from April 7th, 2021:

- Updated Glossary, including Speed of Maximum Gust, and Total Hourly Precipitation

- Updated national and regional climate services offices contacts and prices information

- Addition of station inventory lists for 1981-2010, 1971-2000, and 1961-1990 Normals.

If you haven't already, please take our survey and provide feedback about our website: https://eccc.sondage-survey.ca/f/LanguageSelection.aspx?s=442ca660-fcf1-47c0-95a9-59707d6fd709

Hourly Data Report for September 04, 2015

IQALUIT CLIMATE
NUNAVUT

63°44'50.000" N
68°32'40.000" W
33.50 m
2402592
71321
XFB

Download Data

Hourly Data (September 2015)
Hourly Data Report for September 4, 2015
TIME
LST
Temp Definition
°C
Dew Point Definition
°C
Rel Hum Definition
%
Precip. Amount Definition
mm

Wind Dir Definition
10's deg

Wind Spd Definition
km/h
Visibility Definition
km
Stn Press Definition
kPa
Hmdx Definition


Wind Chill Definition


Weather Definition


00:00 4.7 1.7 81 0.0 17 3   100.87     LegendNANA
01:00 5.2 3.5 89 0.0 33 11   100.87     LegendNANA
02:00 5.0 4.0 93 0.3 33 6   100.86     LegendNANA
03:00 3.3 2.6 95 0.3 15 3   100.83     LegendNANA
04:00 2.9 2.3 96 0.0 14 2   100.80     LegendNANA
05:00 3.2 2.7 97 0.3   0   100.79     LegendNANA
06:00 3.9 3.4 97 0.2 22 1   100.78     LegendNANA
07:00 3.9 3.5 97 0.2 17 2   100.77     LegendNANA
08:00 3.2 2.8 98 0.0 15 3   100.75     LegendNANA
09:00 3.7 3.3 98 0.0 14 3   100.71     LegendNANA
10:00 4.4 4.1 98 0.0 16 3   100.67     LegendNANA
11:00 4.7 4.2 97 0.5 26 10   100.64     LegendNANA
12:00 6.2 4.2 87 0.3 34 17   100.59     LegendNANA
13:00 6.6 3.3 80 0.0 33 19   100.56     LegendNANA
14:00 6.6 2.6 76 0.0 33 24   100.56     LegendNANA
15:00 6.7 1.8 71 0.0 33 28   100.55     LegendNANA
16:00 6.6 -0.1 62 0.0 34 29   100.57     LegendNANA
17:00 5.9 -0.3 65 0.0 33 22   100.58     LegendNANA
18:00 5.4 -1.0 63 0.0 32 22   100.58     LegendNANA
19:00 5.3 -0.2 68 0.0 34 22   100.60     LegendNANA
20:00 5.0 0.5 73 0.0 33 24   100.64     LegendNANA
21:00 4.6 1.7 81 0.0 34 21   100.71     LegendNANA
22:00 4.8 1.1 77 0.0 35 19   100.79     LegendNANA
23:00 3.2 0.5 82 0.0 35 15   100.91     LegendNANA

Notes on Data Quality.

Legend

  • E = Estimated
  • M = Missing
  • NA = Not Available*
  • [empty] = Indicates an unobserved value
Date modified: